Weather History for KLGU - January, 2014

Change the Weather History Date:

Monday, January 6, 2014

  Actual Average Record
Temperature  
Mean Temperature 6 °F -  
Max Temperature 16 °F 29 °F 52 °F (1983)
Min Temperature -4 °F 8 °F -24 °F (1973)
Degree Days  
Heating Degree Days 59    
Moisture  
Dew Point -3 °F    
Average Humidity 78    
Maximum Humidity 91    
Minimum Humidity 68    
Precipitation  
Precipitation 0.00 in - - ()
Sea Level Pressure  
Sea Level Pressure 30.61 in    
Wind  
Wind Speed 1 mph (SW)    
Max Wind Speed 5 mph    
Max Gust Speed -    
Visibility 6 miles    
Events Fog    
Averages and records for this station are not official NWS values.
T = Trace of Precipitation, MM = Missing Value Source: NWS Daily Summary

Daily Weather History Graph

Daily Weather History Graph

Search for Another Location

Airport or City:

Trip Planner

Search our weather history database for the weather conditions in past years. The results will help you decide how hot, cold, wet, or windy it might be!

Date:

Astronomy

Jan. 06, 2014 Rise Set
Actual Time 7:54 AM MST 5:12 PM MST
Civil Twilight 7:23 AM MST 5:43 PM MST
Nautical Twilight 6:48 AM MST 6:18 PM MST
Astronomical Twilight 6:15 AM MST 6:51 PM MST
Moon 11:06 AM MST (1/6) 11:55 PM MST (1/6)
Length of Visible Light 10h 19m
Length of Day
9h 17m
Waxing Crescent, 35% of the Moon is Illuminated
Jan 6
Waxing Crescent
Jan 7
First Quarter
Jan 15
Full
Jan 23
Last Quarter
Jan 30
New

Hourly Weather History & Observations

Time (MST) Temp. Windchill Dew Point Humidity Pressure Visibility Wind Dir Wind Speed Gust Speed Precip Events Conditions
12:51 AM -0.0 °F - -4.0 °F 83% 30.70 in 10.0 mi Calm Calm - N/A   Clear
1:11 AM -0.9 °F -8.9 °F -2.9 °F 91% 30.48 in 1.8 mi Variable 3.5 mph - N/A   Clear
1:20 AM -0.9 °F -8.9 °F -2.9 °F 91% 30.48 in 0.8 mi WSW 3.5 mph - N/A   Mist
1:36 AM 1.0 °F -6.7 °F -2.9 °F 83% 30.49 in 1.5 mi SSE 3.5 mph - N/A   Partly Cloudy
1:40 AM -0.9 °F -8.9 °F -6.0 °F 79% 30.49 in 3.0 mi Variable 3.5 mph - N/A   Haze
1:51 AM -0.9 °F -11.0 °F -5.1 °F 83% 30.71 in 10.0 mi East 4.6 mph - N/A   Partly Cloudy
2:51 AM -2.9 °F - -7.1 °F 82% 30.73 in 7.0 mi Calm Calm - N/A   Clear
3:15 AM -4.0 °F - -9.0 °F 79% 30.51 in 9.0 mi Calm Calm - N/A   Partly Cloudy
3:51 AM -0.9 °F - -6.0 °F 79% 30.72 in 9.0 mi Calm Calm - N/A   Partly Cloudy
4:51 AM -2.0 °F -12.2 °F -7.1 °F 79% 30.74 in 8.0 mi SW 4.6 mph - N/A   Partly Cloudy
5:06 AM -0.9 °F -8.9 °F -6.0 °F 79% 30.52 in 2.0 mi SE 3.5 mph - N/A   Haze
5:16 AM -2.0 °F - -8.0 °F 76% 30.52 in 8.0 mi Calm Calm - N/A   Mostly Cloudy
5:28 AM -2.0 °F - -7.1 °F 79% 30.52 in 8.0 mi Calm Calm - N/A   Scattered Clouds
5:33 AM -4.0 °F - -9.0 °F 79% 30.52 in 4.0 mi Calm Calm - N/A   Haze
5:35 AM -4.0 °F - -9.0 °F 79% 30.52 in 2.5 mi Calm Calm - N/A   Haze
5:39 AM -2.9 °F -11.2 °F -7.1 °F 82% 30.51 in 0.8 mi WSW 3.5 mph - N/A   Mist
5:51 AM -2.9 °F - -7.1 °F 82% 30.76 in 0.5 mi Calm Calm - N/A Fog Light Freezing Fog
6:40 AM -0.9 °F - -7.1 °F 75% 30.51 in 1.2 mi Calm Calm - N/A   Haze
6:43 AM -0.9 °F - -7.1 °F 75% 30.51 in 3.0 mi Calm Calm - N/A   Haze
6:51 AM -0.0 °F - -6.0 °F 76% 30.76 in 6.0 mi Calm Calm - N/A   Haze
7:16 AM -4.0 °F -12.4 °F -9.9 °F 76% 30.53 in 2.5 mi South 3.5 mph - N/A   Haze
7:24 AM -2.0 °F - -9.9 °F 69% 30.53 in 8.0 mi Calm Calm - N/A   Clear
7:30 AM -2.9 °F - -9.0 °F 75% 30.53 in 1.2 mi Calm Calm - N/A   Haze
7:32 AM -2.9 °F - -9.0 °F 75% 30.53 in 0.8 mi Calm Calm - N/A   Haze
7:51 AM -2.9 °F - -8.0 °F 79% 30.79 in 0.2 mi Calm Calm - N/A   Haze
8:51 AM 1.0 °F - -6.0 °F 72% 30.79 in 1.5 mi Calm Calm - N/A   Haze
9:07 AM -0.9 °F -8.9 °F -9.0 °F 69% 30.56 in 1.2 mi WNW 3.5 mph - N/A   Haze
9:12 AM -2.0 °F -10.1 °F -8.0 °F 76% 30.56 in 0.5 mi NW 3.5 mph - N/A   Haze
9:51 AM 6.1 °F - -0.9 °F 73% 30.81 in 3.0 mi Calm Calm - N/A   Haze
10:06 AM 5.0 °F - -0.0 °F 80% 30.56 in 1.8 mi Calm Calm - N/A   Haze
10:14 AM 5.0 °F -2.1 °F -0.9 °F 76% 30.56 in 1.0 mi WSW 3.5 mph - N/A   Haze
10:19 AM 6.1 °F -0.9 °F -0.9 °F 73% 30.56 in 2.5 mi WSW 3.5 mph - N/A   Haze
10:24 AM 6.1 °F - -0.9 °F 73% 30.56 in 5.0 mi Calm Calm - N/A   Haze
10:51 AM 9.0 °F - 1.9 °F 73% 30.79 in 9.0 mi Calm Calm - N/A   Clear
11:51 AM 12.9 °F - 6.1 °F 74% 30.76 in 10.0 mi Calm Calm - N/A   Clear
12:51 PM 12.9 °F 6.9 °F 7.0 °F 77% 30.73 in 10.0 mi WNW 3.5 mph - N/A   Clear
1:51 PM 12.9 °F - 7.0 °F 77% 30.71 in 10.0 mi Calm Calm - N/A   Clear
2:51 PM 15.1 °F 7.7 °F 7.0 °F 70% 30.68 in 10.0 mi WSW 4.6 mph - N/A   Clear
3:51 PM 16.0 °F - 7.0 °F 68% 30.65 in 10.0 mi Calm Calm - N/A   Clear
4:51 PM 15.1 °F - 6.1 °F 68% 30.65 in 10.0 mi Calm Calm - N/A   Clear
5:51 PM 12.9 °F - 6.1 °F 74% 30.65 in 10.0 mi Calm Calm - N/A   Clear
6:51 PM 12.0 °F - 6.1 °F 77% 30.64 in 10.0 mi Calm Calm - N/A   Clear
7:51 PM 6.1 °F - 1.0 °F 80% 30.66 in 10.0 mi Calm Calm - N/A   Clear
8:51 PM 5.0 °F -2.1 °F 1.0 °F 84% 30.63 in 10.0 mi WSW 3.5 mph - N/A   Clear
9:51 PM 3.9 °F - -0.9 °F 80% 30.60 in 10.0 mi Calm Calm - N/A   Clear
10:51 PM 5.0 °F - 1.0 °F 84% 30.56 in 9.0 mi Calm Calm - N/A   Clear
11:51 PM 3.9 °F - -0.0 °F 84% 30.53 in 7.0 mi Calm Calm - N/A   Clear